sim
Sign-in with your pilot id or email,
or register
Callsign
Passwort

Schedule Details

Flight Number: OEC2401
Departure: Oslo Gardermoen Airport (ENGM) at 12:00
Arrival: Thessaloniki International Airport (LGTS) at 15:10
Route: OKSA6D OKSAT L996 LALIL L617 ROE L996 DENKO L616 OGDAS DCT BALAP DCT PARAK DCT BEO DCT OLOTA DCT ERANA UT389 ALIKO ALIK1L

Weather Information
Getting current METAR information for ENGM 192250Z 36004KT CAVOK 03/M05 Q1035
Getting current METAR information for LGTS 192250Z 15005KT 9999 FEW020 13/09 Q1023 NOSIG

Schedule Frequency

Route Map